GLENN Weather Reports


time (UTC)temp
F
wind
direction
speed
knots
gust
knots
rain 1hr
in
rain 24hr
in
rain mn
in
humidity
%
barometer
mb
20260831113016 47 109 1.7 3.5 0.00 0.31 0.00 55 1019.6
20260831111521 47 94 2.6 3.5 0.00 0.37 0.00 55 1019.6
20260831110026 47 103 3.5 5.2 0.00 0.37 0.00 56 1019.7
20260831104537 47 103 2.6 5.2 0.00 0.37 0.00 57 1019.6
20260831103032 47 113 2.6 3.5 0.00 0.37 0.00 58 1019.6
20260831101516 47 109 1.7 3.5 0.00 0.37 0.00 58 1019.5
20260831100022 46 116 2.6 3.5 0.00 0.37 0.00 59 1019.6
20260831094529 46 107 1.7 2.6 0.00 0.37 0.00 60 1019.5
20260831093033 45 115 2.6 3.5 0.00 0.37 0.00 62 1019.5
20260831091529 47 117 2.6 3.5 0.00 0.37 0.00 60 1019.5
20260831090018 47 116 2.6 3.5 0.00 0.37 0.00 58 1019.5
20260831084526 47 116 2.6 3.5 0.00 0.37 0.00 58 1019.4
20260831083038 47 96 2.6 3.5 0.00 0.37 0.00 58 1019.4
20260831081536 47 119 2.6 2.6 0.00 0.37 0.00 60 1019.3
20260831080016 46 119 1.7 3.5 0.00 0.37 0.00 63 1019.3
20260831074521 46 150 3.5 5.2 0.00 0.37 0.00 62 1019.1
20260831073012 49 38 0.0 0.0 0.00 0.37 0.00 53 1019.0
20260831071510 51 335 0.0 0.0 0.00 0.37 0.00 50 1018.8
20260831070023 52 338 0.0 0.0 0.00 0.37 0.00 48 1018.7
20260831064518 52 64 0.0 0.0 0.00 0.37 0.00 48 1018.6
20260831063026 52 136 0.0 1.7 0.00 0.37 0.00 48 1018.4
20260831061509 53 109 0.9 1.7 0.00 0.37 0.00 46 1018.4
20260831060011 53 77 1.7 1.7 0.00 0.37 0.00 46 1018.2
20260831054516 53 156 0.9 1.7 0.00 0.37 0.37 48 1018.3
20260831053023 54 114 0.0 1.7 0.00 0.37 0.37 46 1018.1
20260831051528 53 100 1.7 3.5 0.00 0.37 0.37 48 1018.0
20260831050010 54 117 2.6 5.2 0.00 0.37 0.37 46 1017.9
20260831044513 54 110 2.6 5.2 0.00 0.37 0.37 46 1017.8
20260831043020 54 115 1.7 2.6 0.00 0.37 0.37 47 1017.6
20260831041602 55 109 2.6 3.5 0.00 0.37 0.37 41 1017.4
20260831040007 56 107 1.7 3.5 0.00 0.37 0.37 41 1017.2
20260831034508 57 115 0.9 1.7 0.00 0.38 0.37 40 1017.2
20260831033022 55 119 1.7 3.5 0.00 0.39 0.37 44 1017.0
20260831031523 56 129 1.7 2.6 0.00 0.39 0.37 41 1016.8
20260831030029 55 103 0.0 0.0 0.00 0.39 0.37 44 1016.5
20260831024509 56 91 0.0 0.0 0.00 0.39 0.37 42 1016.2
20260831023013 57 70 0.0 0.0 0.00 0.39 0.37 41 1016.0
20260831021532 58 88 0.0 0.9 0.00 0.39 0.37 40 1015.9
20260831020026 61 44 0.0 0.9 0.00 0.39 0.37 41 1015.7
20260831014530 63 42 0.0 2.6 0.00 0.39 0.37 39 1015.7
20260831013010 65 36 0.9 3.5 0.00 0.39 0.37 34 1015.8
20260831011528 66 5 2.6 4.3 0.00 0.39 0.37 31 1015.8
20260831010024 67 328 2.6 5.2 0.00 0.40 0.37 30 1015.8
20260831004531 67 348 4.3 9.6 0.00 0.45 0.37 27 1015.9
20260831003035 68 317 4.3 9.6 0.00 0.47 0.37 29 1016.0
20260831001515 68 360 7.0 13.0 0.00 0.47 0.37 29 1016.0
20260831000031 69 341 0.9 5.2 0.00 0.47 0.37 34 1015.9
20260830234528 68 360 1.7 3.5 0.00 0.48 0.37 36 1016.1
20260830233034 68 47 1.7 7.0 0.00 0.49 0.37 35 1016.0
20260830231530 67 321 0.9 7.0 0.00 0.49 0.37 38 1016.0
20260830230020 67 323 3.5 8.7 0.00 0.49 0.37 39 1016.1
20260830224527 66 309 1.7 7.8 0.00 0.49 0.37 39 1016.0
20260830223008 66 286 2.6 8.7 0.00 0.54 0.37 44 1016.1
20260830221510 66 360 2.6 7.8 0.00 0.54 0.37 45 1016.1
20260830220014 65 325 2.6 8.7 0.00 0.54 0.37 44 1016.3
20260830214517 65 13 3.5 7.0 0.00 0.54 0.37 45 1016.2
20260830213008 65 51 0.9 7.8 0.00 0.54 0.37 41 1016.4
20260830211510 64 327 3.5 9.6 0.00 0.54 0.37 48 1016.6
20260830210013 64 15 2.6 8.7 0.00 0.54 0.37 48 1016.8
20260830204512 63 346 2.6 8.7 0.00 0.54 0.37 49 1017.0
20260830203015 63 295 3.5 8.7 0.00 0.54 0.37 51 1017.2
20260830201507 62 25 1.7 8.7 0.00 0.54 0.37 54 1017.2
20260830200010 62 352 3.5 7.8 0.00 0.54 0.37 53 1017.2
20260830194520 61 325 1.7 7.8 0.00 0.54 0.37 55 1017.3
20260830193016 60 325 2.6 5.2 0.00 0.54 0.37 55 1017.4
20260830191520 59 360 3.5 7.8 0.00 0.54 0.37 56 1017.5
20260830190011 58 21 3.5 7.0 0.00 0.54 0.37 56 1017.5
20260830184523 58 13 0.9 4.3 0.00 0.54 0.37 57 1017.5
20260830183024 57 9 1.7 4.3 0.00 0.54 0.37 59 1017.9
20260830181521 57 285 1.7 7.0 0.00 0.54 0.37 59 1017.8
20260830180025 56 315 1.7 6.1 0.00 0.54 0.37 69 1018.0
20260830174514 55 360 0.9 6.1 0.00 0.54 0.37 73 1018.0
20260830173017 53 315 0.9 2.6 0.00 0.54 0.37 77 1018.0
20260830171524 51 74 0.9 1.7 0.00 0.54 0.37 75 1018.2
20260830170026 51 210 0.0 3.5 0.00 0.54 0.37 79 1018.1
20260830164524 50 208 2.6 5.2 0.00 0.54 0.37 82 1018.1
20260830163020 49 149 3.5 5.2 0.00 0.54 0.37 88 1018.0
20260830161530 48 192 4.3 6.1 0.00 0.54 0.37 88 1017.9
20260830160028 48 292 0.9 3.5 0.06 0.54 0.37 87 1017.5
20260830154527 48 352 0.0 3.5 0.21 0.54 0.37 91 1017.1
20260830153026 48 312 0.9 6.1 0.22 0.54 0.37 91 1016.9
20260830151517 49 352 0.0 1.7 0.22 0.54 0.37 92 1016.8
20260830150028 48 292 0.0 3.5 0.16 0.48 0.31 92 1017.0
20260830144534 49 248 8.7 12.2 0.01 0.33 0.16 90 1017.7
20260830143030 49 291 0.0 3.5 0.00 0.32 0.15 90 1016.1
20260830141530 50 298 5.2 7.8 0.00 0.32 0.15 89 1016.1
20260830140024 49 340 2.6 7.0 0.00 0.32 0.15 89 1015.5
20260830134535 49 18 0.9 3.5 0.00 0.32 0.15 90 1015.4
20260830133008 49 36 1.7 4.3 0.00 0.32 0.15 91 1015.5
20260830131513 49 57 0.9 4.3 0.00 0.32 0.15 91 1015.6
20260830130020 50 32 0.9 4.3 0.01 0.32 0.15 89 1015.4
20260830124530 52 167 0.9 8.7 0.02 0.33 0.15 87 1015.4
20260830123019 52 157 9.6 20.0 0.09 0.33 0.15 88 1014.7
20260830121531 50 150 8.7 13.9 0.15 0.33 0.15 91 1014.5
20260830120016 50 171 7.8 9.6 0.14 0.32 0.14 89 1015.2
20260830114524 48 215 0.9 7.0 0.13 0.31 0.13 88 1014.4